Regional Weather Roundup
Issued by NWS

Home | Current Version | Previous Version | Text Only | Print | Product List | Glossary Off
Versions: 1 2 3 4 5 6 7 8 9 10 11 12 13 14 15 16 17 18 19 20 21 22 23 24 25 26 27 28 29 30 31 32 33 34 35 36 37 38 39 40 41 42 43 44 45 46 47 48 49 50

000
ASUS43 KDTX 272010
RWRMI
MICHIGAN HOURLY REGIONAL WEATHER ROUNDUP
NATIONAL WEATHER SERVICE DETROIT/PONTIAC MI
400 PM EDT SUN JUL 27 2014

NOTE: "FAIR" INDICATES FEW OR NO CLOUDS BELOW 12,000 FEET WITH NO
SIGNIFICANT WEATHER AND/OR OBSTRUCTION TO VISIBILITY.

MIZ047>049-052>055-059>063-066>070-074>076-081>083-272100-
SOUTHEAST LOWER MICHIGAN

CITY           SKY/WX    TMP DP  RH WIND       PRES   REMARKS
ADRIAN         PTSUNNY   84  67  56 SW12      29.63F
ALMA           PTSUNNY   83  65  54 SW9G16    29.60F
ANN ARBOR      MOSUNNY   84  62  47 W10       29.60F
BAD AXE        CLOUDY    74  65  74 SW3       29.65S
DETROIT CITY   MOSUNNY   85  65  51 S10       29.60F
DETROIT        PTSUNNY   86  64  47 SW8       29.60F
FLINT          MOSUNNY   79  66  64 SW5       29.62F
GROSSE ILE     MOSUNNY   79  72  78 SE13      29.59F
HILLSDALE      MOSUNNY   85  64  48 W9        29.65F
HOWELL         HVY RAIN  69  60  72 NW15G29   29.65R

CITY           SKY/WX    TMP DP  RH WIND       PRES   REMARKS
JACKSON        MOSUNNY   76  71  85 W3        29.63F HAZE
LAMBERTVILLE   HVY RAIN  79  70  73 W8        29.65F
LANSING        PTSUNNY   77  62  59 VRB3      29.62F
LAPEER         NOT AVBL
MASON          LGT RAIN  75  68  79 W6        29.65R
MONROE         MOSUNNY   81  70  69 SE14      29.59F
MT. CLEMENS    MOSUNNY   81  67  63 SE12      29.61F
PONTIAC        CLOUDY    80  63  55 E5        29.62F
PORT HOPE        N/A     68  65  90 E9        29.64F
PORT HURON     MOSUNNY   82  68  61 SW3       29.63F
TRI CITIES     CLOUDY    79  66  64 NE7       29.62F
YPSILANTI      MOSUNNY   89  63  41 S10       29.60F HX  90
$$
MIZ043>046-050>051-056>058-064>065-071>073-077>080-272100-
SOUTHWEST LOWER MICHIGAN

CITY           SKY/WX    TMP DP  RH WIND       PRES   REMARKS
BATTLE CREEK   MOSUNNY   86  63  45 W17G24    29.65F
BENTON HARBOR  MOSUNNY   80  61  52 SW9       29.67F
BIG RAPIDS     HVY RAIN  66  63  91 SW5       29.66R
COLDWATER      MOSUNNY   83  67  58 W7        29.64F
HOLLAND        PTSUNNY   78  67  68 NW9       29.67F THUNDER
GRAND RAPIDS   PTSUNNY   85  62  46 W23G30    29.64F
KALAMAZOO      PTSUNNY   84  61  45 W21G26    29.65F
MARSHALL       CLOUDY    79  64  61 N5        29.63F
MUSKEGON       LGT RAIN  76  66  71 W12       29.66F
$$
MIZ016>042-272100-
NORTHERN LOWER MICHIGAN

CITY           SKY/WX    TMP DP  RH WIND       PRES   REMARKS
ALPENA         TSTM      63  61  93 E6        29.71F
BEAVER ISLAND  CLOUDY    65  62  87 NE7       29.74R
BELLAIRE       CLOUDY    65  61  88 N3        29.68S
CADILLAC       CLOUDY    62  61  96 CALM      29.69R
CHARLEVOIX     CLOUDY    69  66  89 NE9       29.73R
FRANKFORT      CLOUDY    63  59  87 NW14G24   29.71R FOG
GAYLORD        LGT RAIN  63  61  93 NE7       29.71R
GRAYLING       RAIN      62  62 100 NE3       29.71S
HARBOR SPRINGS CLOUDY    68  61  76 NE9       29.71S
HOUGHTON LAKE  LGT RAIN  62  59  90 NW3       29.70F FOG
MANISTEE       CLOUDY    68  61  77 N8G26     29.69R THUNDER
OSCODA         LGT RAIN  61  58  90 NE9       29.68S
PELLSTON       CLOUDY    67  61  81 NE8       29.72R
TRAVERSE CITY  TSTM      67  63  87 SE3       29.66F
$$
MIZ007>008-015-272100-
EASTERN UPPER MICHIGAN

CITY           SKY/WX    TMP DP  RH WIND       PRES   REMARKS
KINROSS        CLOUDY    64  63  94 E5        29.75R
MACKINAC ISLAN CLOUDY    67  62  84 NE9       29.73S
NEWBERRY       CLOUDY    63  57  81 N15G23    29.76S
S. S. MARIE    LGT RAIN  69  58  67 E7        29.74R
$$
MIZ004>006-011>014-085-272100-
CENTRAL UPPER MICHIGAN

CITY           SKY/WX    TMP DP  RH WIND       PRES   REMARKS
MANISTIQUE     RAIN      64  62  94 N12       29.75R
ESCANABA       CLOUDY    61  57  88 N10G18    29.77R
MENOMINEE      CLOUDY    63  59  88 NE7       29.75R
SAWYER-GWINN   CLOUDY    54  52  94 N15       29.85R
$$
MIZ001>003-009>011-084-272100-
WESTERN UPPER MICHIGAN

CITY           SKY/WX    TMP DP  RH WIND       PRES   REMARKS
IRON MOUNTAIN  CLOUDY    66  57  72 N17G26    29.81R
HOUGHTON       PTSUNNY   64  52  64 N10       29.90R
COPPER HARBOR    N/A     59  51  75 N13       29.89R
IRONWOOD       CLOUDY    55  55 100 N9        29.92R
$$

ABBREVIATIONS USED IN REMARKS
   TC - TEMPERATURE IN CELSIUS
  WCI - WIND CHILL INDEX
   HX - HEAT INDEX
  VSB - VISIBILITY




USA.gov is the U.S. government's official web portal to all federal, state and local government web resources and services.